Location: Hickory_CSC
(35.7330°N, 81.3330°W)
Time: 08:31:19
(UTC-05:00)

ISS - All Passes

Search period start: 06 February 2016 00:00
Search period end: 16 February 2016 00:00
Orbit: 399 x 408 km, 51.6° (Epoch: 06 February)

Date Brightness Start Highest point End Pass type
(mag) Time Alt. Az. Time Alt. Az. Time Alt. Az.
06 Feb - 00:41:25 10° NW 00:44:40 82° NE 00:47:54 10° SE night (unlit)
06 Feb - 17:18:54 10° WSW 17:22:06 61° NW 17:25:19 10° NE daylight
06 Feb - 18:58:24 10° NW 18:59:07 11° NNW 18:59:50 10° N visible
06 Feb - 23:49:02 10° NW 23:52:06 38° NE 23:55:10 10° ESE night (unlit)
07 Feb - 01:26:12 10° W 01:28:18 16° SW 01:30:25 10° S night (unlit)
07 Feb - 16:26:23 10° SW 16:29:35 59° SE 16:32:47 10° NE daylight
07 Feb - 18:04:12 10° WNW 18:06:17 16° NNW 18:08:23 10° NNE daylight
07 Feb - 22:56:49 10° NNW 22:59:25 22° NNE 23:02:01 10° E night (unlit)
08 Feb - 00:32:57 10° WNW 00:35:55 33° SW 00:38:53 10° SSE night (unlit)
08 Feb - 15:34:21 10° S 15:37:08 26° SE 15:39:55 10° ENE daylight
08 Feb - 17:10:45 10° W 17:13:32 25° NNW 17:16:18 10° NNE daylight
08 Feb - 22:04:51 10° N 22:06:37 14° NNE 22:08:24 10° ENE night (unlit)
08 Feb - 23:40:11 10° NW 23:43:25 77° SW 23:46:40 10° SE night (unlit)
09 Feb - 14:43:11 10° SSE 14:44:43 13° SE 14:46:17 10° E daylight
09 Feb - 16:17:42 10° WSW 16:20:51 48° NW 16:24:00 10° NE daylight
09 Feb - 22:47:41 10° NW 22:50:50 48° NE 22:53:58 10° ESE night (unlit)
10 Feb - 00:25:25 10° W 00:26:57 13° SW 00:28:28 10° SSW night (unlit)
10 Feb - 15:25:00 10° SW 15:28:14 78° SE 15:31:29 10° NE daylight
10 Feb - 17:03:15 10° WNW 17:05:02 14° NNW 17:06:49 10° N daylight
10 Feb - 21:55:21 10° NNW 21:58:07 25° NNE 22:00:54 10° E night (unlit)
10 Feb - 23:31:45 10° WNW 23:34:32 26° SW 23:37:17 10° S night (unlit)
11 Feb - 14:32:43 10° SSW 14:35:42 33° SE 14:38:40 10° ENE daylight
11 Feb - 16:09:35 10° W 16:12:12 22° NNW 16:14:48 10° NNE daylight
11 Feb - 21:03:13 10° NNW 21:05:18 16° NNE 21:07:24 10° ENE night (unlit)
11 Feb - 22:38:49 10° NW 22:42:01 59° SW 22:45:12 10° SE night (unlit)
12 Feb - 13:41:07 10° S 13:43:13 16° SE 13:45:20 10° E daylight
12 Feb - 15:16:22 10° WSW 15:19:26 38° NW 15:22:30 10° NE daylight
12 Feb - 20:11:41 10° N 20:12:23 10° NNE 20:13:05 10° NE visible
12 Feb - 21:46:10 10° NW 21:49:23 61° NE 21:52:35 10° ESE night (unlit)
13 Feb - 14:23:29 10° SW 14:26:44 82° NW 14:29:59 10° NE daylight
13 Feb - 16:02:13 10° NW 16:03:37 12° NNW 16:05:02 10° N daylight
13 Feb - 20:53:44 10° NNW 20:56:39 30° NE 20:59:34 10° E visible
13 Feb - 22:30:26 10° WNW 22:32:57 21° SW 22:35:29 10° S night (unlit)
14 Feb - 13:31:00 10° SSW 13:34:07 43° SE 13:37:13 10° ENE daylight
14 Feb - 15:08:18 10° WNW 15:10:42 19° NNW 15:13:05 10° NNE daylight
14 Feb - 20:01:28 10° NNW 20:03:48 18° NNE 20:06:09 10° ENE visible
14 Feb - 21:37:18 10° WNW 21:40:25 45° SW 21:43:31 10° SSE night (unlit)
15 Feb - 12:39:04 10° S 12:41:33 20° SE 12:44:02 10° E daylight
15 Feb - 14:14:53 10° W 14:17:50 32° NW 14:20:49 10° NNE daylight
15 Feb - 19:09:34 10° N 19:10:52 12° NNE 19:12:09 10° NE visible
15 Feb - 20:44:31 10° NW 20:47:46 78° NE 20:50:59 10° SE visible
